,,PressureMeas_1m,,PRMeasQMR101_1,,RHStat155_1m_1,,SRMeasQMS101R_1m,,TAStat155_1m_1,,GenWind_1,,GenWind_1,
2019-11-14, 07:00:06,VALID,918.114,VALID,0.0,VALID,90.106,VALID,46.823,VALID,20.99,VALID,89.0,VALID,0.0,
2019-11-14, 07:01:06,VALID,918.118,VALID,0.0,VALID,89.916,VALID,50.0,VALID,21.096,VALID,74.0,VALID,0.0,
2019-11-14, 07:02:06,VALID,918.111,VALID,0.0,VALID,89.542,VALID,53.632,VALID,21.125,VALID,90.0,VALID,0.0,
2019-11-14, 07:03:06,VALID,918.11,VALID,0.0,VALID,89.122,VALID,56.65,VALID,21.198,VALID,88.0,VALID,0.0,
2019-11-14, 07:04:06,VALID,918.135,VALID,0.0,VALID,89.093,VALID,59.605,VALID,21.224,VALID,87.0,VALID,0.0,
2019-11-14, 07:05:06,VALID,918.118,VALID,0.0,VALID,89.067,VALID,61.053,VALID,21.232,VALID,96.0,VALID,0.0,
2019-11-14, 07:06:06,VALID,918.139,VALID,0.0,VALID,89.813,VALID,62.215,VALID,21.22,VALID,102.0,VALID,0.0,
2019-11-14, 07:07:06,VALID,918.143,VALID,0.0,VALID,89.62,VALID,65.148,VALID,21.216,VALID,85.0,VALID,0.0,
2019-11-14, 07:08:06,VALID,918.126,VALID,0.0,VALID,89.348,VALID,67.996,VALID,21.264,VALID,61.0,VALID,0.0,
2019-11-14, 07:09:06,VALID,918.119,VALID,0.0,VALID,89.712,VALID,70.794,VALID,21.254,VALID,106.0,VALID,0.0,
2019-11-14, 07:10:06,VALID,918.111,VALID,0.0,VALID,89.336,VALID,73.024,VALID,21.279,VALID,98.0,VALID,0.0,
2019-11-14, 07:11:06,VALID,918.111,VALID,0.0,VALID,88.984,VALID,75.094,VALID,21.298,VALID,81.0,VALID,0.0,
2019-11-14, 07:12:06,VALID,918.127,VALID,0.0,VALID,88.873,VALID,73.519,VALID,21.333,VALID,78.0,VALID,0.0,
2019-11-14, 07:13:06,VALID,918.146,VALID,0.0,VALID,88.939,VALID,73.461,VALID,21.353,VALID,111.0,VALID,0.0,
2019-11-14, 07:14:06,VALID,918.147,VALID,0.0,VALID,88.694,VALID,77.952,VALID,21.37,VALID,100.0,VALID,0.0,
2019-11-14, 07:15:06,VALID,918.15,VALID,0.0,VALID,88.278,VALID,78.052,VALID,21.38,VALID,105.0,VALID,0.0,
2019-11-14, 07:16:06,VALID,918.145,VALID,0.0,VALID,88.52,VALID,79.463,VALID,21.398,VALID,100.0,VALID,0.0,
2019-11-14, 07:17:06,VALID,918.143,VALID,0.0,VALID,88.878,VALID,83.145,VALID,21.414,VALID,88.0,VALID,0.0,
2019-11-14, 07:18:06,VALID,918.16,VALID,0.0,VALID,88.764,VALID,83.811,VALID,21.438,VALID,94.0,VALID,0.0,
2019-11-14, 07:19:06,VALID,918.155,VALID,0.0,VALID,88.575,VALID,83.877,VALID,21.455,VALID,106.0,VALID,0.488,
2019-11-14, 07:20:06,VALID,918.165,VALID,0.0,VALID,88.349,VALID,84.371,VALID,21.498,VALID,72.0,VALID,2.108,
2019-11-14, 07:21:06,VALID,918.18,VALID,0.0,VALID,87.996,VALID,86.281,VALID,21.494,VALID,103.0,VALID,2.057,
2019-11-14, 07:22:06,VALID,918.149,VALID,0.0,VALID,87.438,VALID,86.364,VALID,21.535,VALID,71.0,VALID,2.657,
2019-11-14, 07:23:06,VALID,918.134,VALID,0.0,VALID,87.611,VALID,90.233,VALID,21.559,VALID,53.0,VALID,2.233,
2019-11-14, 07:24:06,VALID,918.126,VALID,0.0,VALID,87.682,VALID,93.81,VALID,21.54,VALID,91.0,VALID,2.038,
2019-11-14, 07:25:06,VALID,918.143,VALID,0.0,VALID,87.932,VALID,96.838,VALID,21.56,VALID,69.0,VALID,0.972,
2019-11-14, 07:26:06,VALID,918.157,VALID,0.0,VALID,88.694,VALID,99.795,VALID,21.573,VALID,74.0,VALID,0.677,
2019-11-14, 07:27:06,VALID,918.196,VALID,0.0,VALID,87.812,VALID,101.842,VALID,21.58,VALID,103.0,VALID,0.0,
2019-11-14, 07:28:06,VALID,918.173,VALID,0.0,VALID,88.153,VALID,104.257,VALID,21.609,VALID,56.0,VALID,0.0,
2019-11-14, 07:29:06,VALID,918.172,VALID,0.0,VALID,87.784,VALID,106.326,VALID,21.631,VALID,54.0,VALID,0.0,
2019-11-14, 07:30:06,VALID,918.209,VALID,0.0,VALID,88.05,VALID,108.237,VALID,21.657,VALID,125.0,VALID,1.25,
2019-11-14, 07:31:06,VALID,918.214,VALID,0.0,VALID,88.186,VALID,110.122,VALID,21.678,VALID,60.0,VALID,0.003,
2019-11-14, 07:32:06,VALID,918.219,VALID,0.0,VALID,87.982,VALID,112.853,VALID,21.725,INVALID,360.0,VALID,0.0,
2019-11-14, 07:33:06,VALID,918.233,VALID,0.0,VALID,87.673,VALID,114.751,VALID,21.737,INVALID,360.0,VALID,0.0,
2019-11-14, 07:34:06,VALID,918.228,VALID,0.0,VALID,87.798,VALID,116.727,VALID,21.755,VALID,129.0,VALID,0.0,
2019-11-14, 07:35:06,VALID,918.212,VALID,0.0,VALID,87.743,VALID,118.979,VALID,21.777,VALID,137.0,VALID,0.0,
2019-11-14, 07:36:06,VALID,918.239,VALID,0.0,VALID,88.192,VALID,121.784,VALID,21.809,VALID,120.0,VALID,0.0,
2019-11-14, 07:37:06,VALID,918.255,VALID,0.0,VALID,87.196,VALID,124.967,VALID,21.8,VALID,128.0,VALID,0.0,
2019-11-14, 07:38:06,VALID,918.26,VALID,0.0,VALID,87.486,VALID,127.936,VALID,21.801,INVALID,360.0,VALID,0.0,
2019-11-14, 07:39:06,VALID,918.279,VALID,0.0,VALID,87.086,VALID,130.263,VALID,21.807,INVALID,360.0,VALID,0.0,
2019-11-14, 07:40:06,VALID,918.283,VALID,0.0,VALID,87.411,VALID,131.554,VALID,21.803,VALID,109.0,VALID,0.434,
2019-11-14, 07:41:06,VALID,918.29,VALID,0.0,VALID,87.687,VALID,131.68,VALID,21.776,VALID,102.0,VALID,0.012,
2019-11-14, 07:42:06,VALID,918.323,VALID,0.0,VALID,87.519,VALID,131.718,VALID,21.8,INVALID,360.0,VALID,0.0,
2019-11-14, 07:43:06,VALID,918.35,VALID,0.0,VALID,87.657,VALID,132.46,VALID,21.825,VALID,120.0,VALID,0.0,
2019-11-14, 07:44:06,VALID,918.343,VALID,0.0,VALID,87.22,VALID,134.452,VALID,21.817,INVALID,360.0,VALID,0.0,
2019-11-14, 07:45:06,VALID,918.358,VALID,0.0,VALID,87.596,VALID,137.551,VALID,21.824,INVALID,360.0,VALID,0.0,
2019-11-14, 07:46:06,VALID,918.356,VALID,0.0,VALID,87.219,VALID,141.731,VALID,21.852,INVALID,360.0,VALID,0.0,
2019-11-14, 07:47:06,VALID,918.38,VALID,0.0,VALID,87.902,VALID,146.408,VALID,21.868,INVALID,360.0,VALID,0.0,
2019-11-14, 07:48:06,VALID,918.368,VALID,0.0,VALID,87.419,VALID,151.11,VALID,21.896,INVALID,360.0,VALID,0.0,
2019-11-14, 07:49:06,VALID,918.368,VALID,0.0,VALID,87.354,VALID,155.664,VALID,21.97,VALID,120.0,VALID,0.079,
2019-11-14, 07:50:06,VALID,918.365,VALID,0.0,VALID,87.538,VALID,160.731,VALID,22.049,VALID,124.0,VALID,0.0,
2019-11-14, 07:51:06,VALID,918.368,VALID,0.0,VALID,87.419,VALID,166.416,VALID,22.125,INVALID,360.0,VALID,0.0,
2019-11-14, 07:52:06,VALID,918.382,VALID,0.0,VALID,86.422,VALID,171.314,VALID,22.136,VALID,102.0,VALID,0.0,
2019-11-14, 07:53:06,VALID,918.408,VALID,0.0,VALID,86.845,VALID,174.306,VALID,22.128,VALID,124.0,VALID,0.0,
2019-11-14, 07:54:06,VALID,918.414,VALID,0.0,VALID,86.275,VALID,176.461,VALID,22.152,VALID,119.0,VALID,0.0,
2019-11-14, 07:55:06,VALID,918.383,VALID,0.0,VALID,85.742,VALID,176.773,VALID,22.148,VALID,100.0,VALID,0.493,
2019-11-14, 07:56:06,VALID,918.388,VALID,0.0,VALID,86.645,VALID,176.391,VALID,22.207,VALID,124.0,VALID,0.007,
2019-11-14, 07:57:06,VALID,918.404,VALID,0.0,VALID,86.218,VALID,175.577,VALID,22.296,VALID,112.0,VALID,0.0,
2019-11-14, 07:58:06,VALID,918.383,VALID,0.0,VALID,86.703,VALID,176.182,VALID,22.367,VALID,122.0,VALID,0.0,
2019-11-14, 07:59:06,VALID,918.383,VALID,0.0,VALID,86.325,VALID,177.994,VALID,22.461,VALID,105.0,VALID,0.0,
2019-11-14, 08:00:06,VALID,918.394,VALID,0.0,VALID,85.445,VALID,179.854,VALID,22.467,VALID,125.0,VALID,0.0,
2019-11-14, 08:01:06,VALID,918.392,VALID,0.0,VALID,85.454,VALID,186.939,VALID,22.533,VALID,105.0,VALID,0.0,
2019-11-14, 08:02:06,VALID,918.368,VALID,0.0,VALID,84.983,VALID,194.723,VALID,22.604,VALID,110.0,VALID,0.0,
2019-11-14, 08:03:06,VALID,918.374,VALID,0.0,VALID,84.997,VALID,211.034,VALID,22.687,VALID,114.0,VALID,0.0,
2019-11-14, 08:04:06,VALID,918.385,VALID,0.0,VALID,84.104,VALID,235.124,VALID,22.665,VALID,127.0,VALID,0.0,
2019-11-14, 08:05:06,VALID,918.391,VALID,0.0,VALID,84.301,VALID,238.305,VALID,22.647,VALID,125.0,VALID,0.0,
2019-11-14, 08:06:06,VALID,918.401,VALID,0.0,VALID,84.249,VALID,203.81,VALID,22.706,VALID,109.0,VALID,0.0,
2019-11-14, 08:07:06,VALID,918.397,VALID,0.0,VALID,83.474,VALID,187.708,VALID,22.706,VALID,78.0,VALID,0.0,
2019-11-14, 08:08:06,VALID,918.432,VALID,0.0,VALID,84.813,VALID,196.484,VALID,22.701,VALID,110.0,VALID,0.0,
2019-11-14, 08:09:06,VALID,918.438,VALID,0.0,VALID,83.592,VALID,226.678,VALID,22.663,VALID,109.0,VALID,0.0,
2019-11-14, 08:10:06,VALID,918.428,VALID,0.0,VALID,83.797,VALID,247.498,VALID,22.582,VALID,86.0,VALID,0.0,
2019-11-14, 08:11:06,VALID,918.434,VALID,0.0,VALID,84.939,VALID,286.936,VALID,22.628,INVALID,360.0,VALID,0.0,
2019-11-14, 08:12:06,VALID,918.452,VALID,0.0,VALID,84.711,VALID,346.575,VALID,22.754,VALID,147.0,VALID,0.0,
2019-11-14, 08:13:06,VALID,918.485,VALID,0.0,VALID,83.257,VALID,357.071,VALID,22.92,VALID,100.0,VALID,0.0,
2019-11-14, 08:14:06,VALID,918.457,VALID,0.0,VALID,82.935,VALID,397.259,VALID,23.124,VALID,119.0,VALID,0.0,
2019-11-14, 08:15:06,VALID,918.508,VALID,0.0,VALID,82.032,VALID,460.277,VALID,23.332,VALID,110.0,VALID,0.0,
2019-11-14, 08:16:06,VALID,918.54,VALID,0.0,VALID,82.078,VALID,447.919,VALID,23.639,VALID,102.0,VALID,0.0,
2019-11-14, 08:17:06,VALID,918.545,VALID,0.0,VALID,81.295,VALID,458.989,VALID,23.801,VALID,77.0,VALID,0.0,
2019-11-14, 08:18:06,VALID,918.536,VALID,0.0,VALID,79.624,VALID,445.706,VALID,23.808,VALID,68.0,VALID,0.0,
2019-11-14, 08:19:06,VALID,918.557,VALID,0.0,VALID,80.835,VALID,428.384,VALID,23.781,VALID,73.0,VALID,0.0,
2019-11-14, 08:20:06,VALID,918.571,VALID,0.0,VALID,80.688,VALID,361.36,VALID,23.676,VALID,83.0,VALID,0.098,
2019-11-14, 08:21:06,VALID,918.588,VALID,0.0,VALID,81.276,VALID,358.182,VALID,23.66,VALID,108.0,VALID,0.0,
2019-11-14, 08:22:06,VALID,918.613,VALID,0.0,VALID,81.883,VALID,366.166,VALID,23.741,VALID,75.0,VALID,0.0,
2019-11-14, 08:23:06,VALID,918.589,VALID,0.0,VALID,81.677,VALID,374.384,VALID,24.004,VALID,36.0,VALID,0.0,
2019-11-14, 08:24:06,VALID,918.589,VALID,0.0,VALID,80.517,VALID,385.787,VALID,24.172,VALID,33.0,VALID,0.0,
2019-11-14, 08:25:06,VALID,918.588,VALID,0.0,VALID,79.649,VALID,508.971,VALID,24.296,VALID,88.0,VALID,0.0,
2019-11-14, 08:26:06,VALID,918.595,VALID,0.0,VALID,78.0,VALID,545.454,VALID,24.224,VALID,57.0,VALID,0.0,
2019-11-14, 08:27:06,VALID,918.6,VALID,0.0,VALID,80.224,VALID,604.272,VALID,24.095,VALID,59.0,VALID,0.5,
2019-11-14, 08:28:06,VALID,918.601,VALID,0.0,VALID,77.58,VALID,612.311,VALID,24.146,VALID,81.0,VALID,0.25,
2019-11-14, 08:29:06,VALID,918.577,VALID,0.0,VALID,77.449,VALID,615.233,VALID,24.075,VALID,64.0,VALID,0.0,
2019-11-14, 08:30:06,VALID,918.585,VALID,0.0,VALID,80.212,VALID,558.209,VALID,24.443,VALID,31.0,VALID,0.0,
2019-11-14, 08:31:06,VALID,918.603,VALID,0.0,VALID,79.07,VALID,472.03,VALID,25.028,VALID,58.0,VALID,0.0,
2019-11-14, 08:32:06,VALID,918.592,VALID,0.0,VALID,77.398,VALID,438.708,VALID,25.327,VALID,63.0,VALID,0.0,
2019-11-14, 08:33:06,VALID,918.576,VALID,0.0,VALID,74.396,VALID,383.457,VALID,25.293,VALID,66.0,VALID,0.7,
2019-11-14, 08:34:06,VALID,918.571,VALID,0.0,VALID,74.74,VALID,340.301,VALID,24.996,VALID,88.0,VALID,0.0,
2019-11-14, 08:35:06,VALID,918.598,VALID,0.0,VALID,73.927,VALID,348.324,VALID,24.815,VALID,119.0,VALID,0.0,
2019-11-14, 08:36:06,VALID,918.618,VALID,0.0,VALID,75.78,VALID,355.781,VALID,24.608,VALID,77.0,VALID,0.0,
2019-11-14, 08:37:06,VALID,918.584,VALID,0.0,VALID,76.331,VALID,387.07,VALID,24.393,VALID,22.0,VALID,0.0,
2019-11-14, 08:38:06,VALID,918.608,VALID,0.0,VALID,77.778,VALID,438.312,VALID,24.357,VALID,74.0,VALID,1.12,
2019-11-14, 08:39:06,VALID,918.63,VALID,0.0,VALID,79.911,VALID,490.256,VALID,24.527,VALID,51.0,VALID,0.031,
2019-11-14, 08:40:06,VALID,918.636,VALID,0.0,VALID,78.229,VALID,515.181,VALID,24.681,VALID,52.0,VALID,0.0,
2019-11-14, 08:41:06,VALID,918.629,VALID,0.0,VALID,76.618,VALID,529.808,VALID,24.516,VALID,26.0,VALID,0.0,
2019-11-14, 08:42:06,VALID,918.643,VALID,0.0,VALID,78.513,VALID,635.706,VALID,24.361,VALID,76.0,VALID,0.0,
2019-11-14, 08:43:06,VALID,918.647,VALID,0.0,VALID,77.615,VALID,740.027,VALID,24.456,VALID,110.0,VALID,0.0,
2019-11-14, 08:44:06,VALID,918.632,VALID,0.0,VALID,76.631,VALID,746.089,VALID,24.629,VALID,106.0,VALID,0.0,
2019-11-14, 08:45:06,VALID,918.647,VALID,0.0,VALID,77.127,VALID,733.618,VALID,24.951,VALID,49.0,VALID,0.0,
2019-11-14, 08:46:06,VALID,918.637,VALID,0.0,VALID,76.789,VALID,692.482,VALID,25.106,INVALID,360.0,VALID,0.0,
2019-11-14, 08:47:06,VALID,918.649,VALID,0.0,VALID,75.378,VALID,653.515,VALID,25.377,INVALID,360.0,VALID,0.0,
2019-11-14, 08:48:06,VALID,918.628,VALID,0.0,VALID,72.603,VALID,564.392,VALID,25.768,VALID,50.0,VALID,0.0,
2019-11-14, 08:49:06,VALID,918.617,VALID,0.0,VALID,74.336,VALID,525.569,VALID,25.978,INVALID,360.0,VALID,0.0,
2019-11-14, 08:50:06,VALID,918.611,VALID,0.0,VALID,72.248,VALID,486.717,VALID,25.648,INVALID,360.0,VALID,0.0,
2019-11-14, 08:51:06,VALID,918.609,VALID,0.0,VALID,73.134,VALID,675.058,VALID,25.317,INVALID,360.0,VALID,0.0,
2019-11-14, 08:52:06,VALID,918.631,VALID,0.0,VALID,72.499,VALID,663.84,VALID,25.464,INVALID,360.0,VALID,0.0,
2019-11-14, 08:53:06,VALID,918.611,VALID,0.0,VALID,72.829,VALID,618.204,VALID,25.707,INVALID,360.0,VALID,0.0,
2019-11-14, 08:54:06,VALID,918.592,VALID,0.0,VALID,72.877,VALID,747.572,VALID,25.844,VALID,360.0,VALID,0.106,
2019-11-14, 08:55:06,VALID,918.584,VALID,0.0,VALID,71.804,VALID,673.074,VALID,25.517,VALID,8.0,VALID,0.0,
2019-11-14, 08:56:06,VALID,918.594,VALID,0.0,VALID,73.731,VALID,524.891,VALID,25.104,VALID,43.0,VALID,0.0,
2019-11-14, 08:57:06,VALID,918.59,VALID,0.0,VALID,75.027,VALID,406.922,VALID,24.847,VALID,58.0,VALID,0.0,
2019-11-14, 08:58:06,VALID,918.615,VALID,0.0,VALID,76.052,VALID,386.007,VALID,24.804,VALID,52.0,VALID,0.0,
2019-11-14, 08:59:06,VALID,918.643,VALID,0.0,VALID,76.641,VALID,374.077,VALID,24.839,VALID,11.0,VALID,0.0,
2019-11-14, 09:00:06,VALID,918.629,VALID,0.0,VALID,74.385,VALID,369.294,VALID,25.001,VALID,116.0,VALID,0.0,
2019-11-14, 09:01:06,VALID,918.632,VALID,0.0,VALID,73.538,VALID,395.66,VALID,25.054,VALID,80.0,VALID,0.0,
2019-11-14, 09:02:06,VALID,918.644,VALID,0.0,VALID,74.564,VALID,407.931,VALID,25.158,VALID,66.0,VALID,0.0,
2019-11-14, 09:03:06,VALID,918.658,VALID,0.0,VALID,73.353,VALID,420.955,VALID,25.187,VALID,102.0,VALID,0.0,
2019-11-14, 09:04:06,VALID,918.646,VALID,0.0,VALID,72.516,VALID,448.52,VALID,25.082,VALID,86.0,VALID,0.0,
2019-11-14, 09:05:06,VALID,918.632,VALID,0.0,VALID,74.63,VALID,446.302,VALID,25.064,VALID,36.0,VALID,0.0,
2019-11-14, 09:06:06,VALID,918.638,VALID,0.0,VALID,74.773,VALID,431.807,VALID,25.216,VALID,71.0,VALID,0.0,
2019-11-14, 09:07:06,VALID,918.625,VALID,0.0,VALID,74.414,VALID,429.699,VALID,25.253,VALID,51.0,VALID,0.0,
2019-11-14, 09:08:06,VALID,918.601,VALID,0.0,VALID,72.299,VALID,420.861,VALID,24.881,VALID,34.0,VALID,0.0,
2019-11-14, 09:09:06,VALID,918.643,VALID,0.0,VALID,74.601,VALID,414.186,VALID,24.568,VALID,72.0,VALID,0.0,
2019-11-14, 09:10:06,VALID,918.62,VALID,0.0,VALID,73.084,VALID,412.211,VALID,24.332,VALID,84.0,VALID,0.0,
2019-11-14, 09:11:06,VALID,918.583,VALID,0.0,VALID,74.462,VALID,478.472,VALID,24.362,VALID,94.0,VALID,0.0,
2019-11-14, 09:12:06,VALID,918.588,VALID,0.0,VALID,76.563,VALID,543.462,VALID,24.679,VALID,88.0,VALID,0.0,
2019-11-14, 09:13:06,VALID,918.565,VALID,0.0,VALID,74.467,VALID,453.026,VALID,24.846,VALID,96.0,VALID,0.0,
2019-11-14, 09:14:06,VALID,918.55,VALID,0.0,VALID,73.98,VALID,448.535,VALID,24.782,VALID,101.0,VALID,0.0,
2019-11-14, 09:15:06,VALID,918.525,VALID,0.0,VALID,75.363,VALID,473.17,VALID,24.741,VALID,62.0,VALID,0.0,
2019-11-14, 09:16:06,VALID,918.477,VALID,0.0,VALID,74.506,VALID,439.41,VALID,24.801,VALID,58.0,VALID,0.0,
2019-11-14, 09:17:06,VALID,918.499,VALID,0.0,VALID,74.579,VALID,408.193,VALID,24.623,VALID,70.0,VALID,0.0,
2019-11-14, 09:18:06,VALID,918.462,VALID,0.0,VALID,73.949,VALID,388.372,VALID,24.346,VALID,66.0,VALID,0.0,
2019-11-14, 09:19:06,VALID,918.435,VALID,0.0,VALID,75.528,VALID,376.82,VALID,24.147,VALID,51.0,VALID,0.0,
2019-11-14, 09:20:06,VALID,918.471,VALID,0.0,VALID,76.902,VALID,368.835,VALID,24.161,VALID,75.0,VALID,0.0,
2019-11-14, 09:21:06,VALID,918.47,VALID,0.0,VALID,76.186,VALID,363.752,VALID,24.15,VALID,87.0,VALID,0.0,
2019-11-14, 09:22:06,VALID,918.438,VALID,0.0,VALID,78.436,VALID,358.838,VALID,24.181,VALID,60.0,VALID,0.0,
2019-11-14, 09:23:06,VALID,918.448,VALID,0.0,VALID,76.619,VALID,353.203,VALID,24.298,VALID,104.0,VALID,0.0,
2019-11-14, 09:24:06,VALID,918.467,VALID,0.0,VALID,76.599,VALID,346.948,VALID,24.208,VALID,96.0,VALID,0.0,
2019-11-14, 09:25:06,VALID,918.465,VALID,0.0,VALID,76.516,VALID,339.061,VALID,24.075,VALID,77.0,VALID,0.0,
2019-11-14, 09:26:06,VALID,918.479,VALID,0.0,VALID,77.834,VALID,331.903,VALID,23.978,VALID,59.0,VALID,0.0,
2019-11-14, 09:27:06,VALID,918.477,VALID,0.0,VALID,78.701,VALID,325.498,VALID,24.062,VALID,51.0,VALID,0.0,
2019-11-14, 09:28:06,VALID,918.479,VALID,0.0,VALID,77.407,VALID,320.504,VALID,24.017,VALID,66.0,VALID,0.0,
2019-11-14, 09:29:06,VALID,918.499,VALID,0.0,VALID,79.102,VALID,315.935,VALID,23.974,VALID,100.0,VALID,0.0,
2019-11-14, 09:30:06,VALID,918.493,VALID,0.0,VALID,78.668,VALID,306.156,VALID,24.034,VALID,81.0,VALID,0.0,
2019-11-14, 09:31:06,VALID,918.505,VALID,0.0,VALID,76.386,VALID,304.738,VALID,23.942,VALID,79.0,VALID,0.0,
2019-11-14, 09:32:06,VALID,918.547,VALID,0.0,VALID,77.257,VALID,299.354,VALID,23.776,VALID,89.0,VALID,0.0,
2019-11-14, 09:33:06,VALID,918.549,VALID,0.0,VALID,78.172,VALID,297.869,VALID,23.709,VALID,89.0,VALID,0.0,
2019-11-14, 09:34:06,VALID,918.565,VALID,0.0,VALID,78.01,VALID,302.737,VALID,23.773,VALID,94.0,VALID,0.0,
2019-11-14, 09:35:06,VALID,918.541,VALID,0.0,VALID,78.253,VALID,306.911,VALID,23.772,VALID,93.0,VALID,0.0,
2019-11-14, 09:36:06,VALID,918.563,VALID,0.0,VALID,78.363,VALID,308.533,VALID,23.868,VALID,87.0,VALID,0.0,
2019-11-14, 09:37:06,VALID,918.555,VALID,0.0,VALID,78.285,VALID,308.516,VALID,23.871,VALID,101.0,VALID,0.0,
2019-11-14, 09:38:06,VALID,918.568,VALID,0.0,VALID,77.659,VALID,307.324,VALID,23.788,VALID,67.0,VALID,0.0,
2019-11-14, 09:39:06,VALID,918.55,VALID,0.0,VALID,78.016,VALID,307.599,VALID,23.699,VALID,89.0,VALID,0.0,
2019-11-14, 09:40:06,VALID,918.555,VALID,0.0,VALID,79.29,VALID,307.871,VALID,23.741,VALID,83.0,VALID,0.0,
2019-11-14, 09:41:06,VALID,918.557,VALID,0.0,VALID,78.69,VALID,308.392,VALID,23.861,VALID,53.0,VALID,0.0,
2019-11-14, 09:42:06,VALID,918.551,VALID,0.0,VALID,78.502,VALID,308.64,VALID,23.843,VALID,67.0,VALID,0.0,
2019-11-14, 09:43:06,VALID,918.589,VALID,0.0,VALID,78.974,VALID,309.244,VALID,23.824,VALID,72.0,VALID,0.0,
2019-11-14, 09:44:06,VALID,918.62,VALID,0.0,VALID,78.35,VALID,314.556,VALID,23.804,VALID,92.0,VALID,0.0,
2019-11-14, 09:45:06,VALID,918.607,VALID,0.0,VALID,79.269,VALID,317.772,VALID,23.822,VALID,67.0,VALID,0.0,
2019-11-14, 09:46:06,VALID,918.603,VALID,0.0,VALID,78.577,VALID,319.829,VALID,23.832,VALID,37.0,VALID,0.0,
2019-11-14, 09:47:06,VALID,918.617,VALID,0.0,VALID,78.006,VALID,322.546,VALID,23.755,VALID,35.0,VALID,0.0,
2019-11-14, 09:48:06,VALID,918.667,VALID,0.0,VALID,79.629,VALID,326.98,VALID,23.886,VALID,80.0,VALID,0.0,
2019-11-14, 09:49:06,VALID,918.649,VALID,0.0,VALID,78.661,VALID,330.601,VALID,24.014,VALID,85.0,VALID,0.0,
2019-11-14, 09:50:06,VALID,918.635,VALID,0.0,VALID,77.659,VALID,344.915,VALID,24.165,VALID,94.0,VALID,0.0,
2019-11-14, 09:51:06,VALID,918.606,VALID,0.0,VALID,77.488,VALID,356.423,VALID,24.19,VALID,74.0,VALID,0.0,
2019-11-14, 09:52:06,VALID,918.606,VALID,0.0,VALID,78.035,VALID,362.089,VALID,24.273,VALID,87.0,VALID,0.0,
2019-11-14, 09:53:06,VALID,918.595,VALID,0.0,VALID,77.321,VALID,369.611,VALID,24.44,VALID,97.0,VALID,0.0,
2019-11-14, 09:54:06,VALID,918.6,VALID,0.0,VALID,77.117,VALID,383.884,VALID,24.435,VALID,73.0,VALID,0.0,
2019-11-14, 09:55:06,VALID,918.587,VALID,0.0,VALID,76.682,VALID,399.51,VALID,24.268,VALID,80.0,VALID,0.0,
2019-11-14, 09:56:06,VALID,918.581,VALID,0.0,VALID,77.607,VALID,410.347,VALID,24.158,VALID,56.0,VALID,0.0,
2019-11-14, 09:57:06,VALID,918.579,VALID,0.0,VALID,79.847,VALID,416.657,VALID,24.353,VALID,54.0,VALID,0.0,
2019-11-14, 09:58:06,VALID,918.587,VALID,0.0,VALID,77.364,VALID,421.352,VALID,24.599,VALID,63.0,VALID,0.0,
2019-11-14, 09:59:06,VALID,918.583,VALID,0.0,VALID,77.319,VALID,426.788,VALID,24.757,VALID,27.0,VALID,0.0,
2019-11-14, 10:00:06,VALID,918.591,VALID,0.0,VALID,77.615,VALID,430.698,VALID,24.995,VALID,80.0,VALID,0.571,
2019-11-14, 10:01:06,VALID,918.578,VALID,0.0,VALID,72.412,VALID,433.182,VALID,24.995,VALID,65.0,VALID,1.111,
2019-11-14, 10:02:06,VALID,918.575,VALID,0.0,VALID,74.454,VALID,439.713,VALID,24.783,VALID,61.0,VALID,1.178,
2019-11-14, 10:03:06,VALID,918.601,VALID,0.0,VALID,72.921,VALID,443.805,VALID,24.652,VALID,42.0,VALID,0.0,
2019-11-14, 10:04:06,VALID,918.623,VALID,0.0,VALID,73.923,VALID,448.244,VALID,24.66,VALID,48.0,VALID,0.0,
2019-11-14, 10:05:06,VALID,918.627,VALID,0.0,VALID,76.774,VALID,457.278,VALID,24.732,VALID,34.0,VALID,0.0,
2019-11-14, 10:06:06,VALID,918.638,VALID,0.0,VALID,75.501,VALID,470.179,VALID,24.734,VALID,44.0,VALID,0.0,
2019-11-14, 10:07:06,VALID,918.613,VALID,0.0,VALID,76.622,VALID,470.224,VALID,24.714,VALID,34.0,VALID,0.0,
2019-11-14, 10:08:06,VALID,918.62,VALID,0.0,VALID,74.858,VALID,487.989,VALID,24.718,VALID,32.0,VALID,0.0,
2019-11-14, 10:09:06,VALID,918.611,VALID,0.0,VALID,74.2,VALID,497.917,VALID,24.61,VALID,10.0,VALID,0.0,
2019-11-14, 10:10:06,VALID,918.606,VALID,0.0,VALID,74.869,VALID,487.629,VALID,24.554,VALID,35.0,VALID,0.0,
2019-11-14, 10:11:06,VALID,918.614,VALID,0.0,VALID,76.674,VALID,522.988,VALID,24.725,VALID,32.0,VALID,0.0,
2019-11-14, 10:12:06,VALID,918.635,VALID,0.0,VALID,76.752,VALID,528.762,VALID,24.822,VALID,49.0,VALID,0.0,
2019-11-14, 10:13:06,VALID,918.629,VALID,0.0,VALID,75.845,VALID,525.829,VALID,24.76,VALID,27.0,VALID,0.0,
2019-11-14, 10:14:06,VALID,918.647,VALID,0.0,VALID,75.675,VALID,520.938,VALID,24.856,VALID,22.0,VALID,0.0,
2019-11-14, 10:15:06,VALID,918.646,VALID,0.0,VALID,74.948,VALID,517.98,VALID,24.772,VALID,48.0,VALID,0.0,
2019-11-14, 10:16:06,VALID,918.638,VALID,0.0,VALID,75.736,VALID,515.227,VALID,24.85,VALID,24.0,VALID,0.0,
2019-11-14, 10:17:06,VALID,918.652,VALID,0.0,VALID,74.532,VALID,513.781,VALID,24.863,VALID,71.0,VALID,0.0,
2019-11-14, 10:18:06,VALID,918.622,VALID,0.0,VALID,75.256,VALID,522.528,VALID,24.788,VALID,59.0,VALID,0.0,
2019-11-14, 10:19:06,VALID,918.597,VALID,0.0,VALID,76.148,VALID,500.153,VALID,24.842,VALID,27.0,VALID,0.0,
2019-11-14, 10:20:06,VALID,918.592,VALID,0.0,VALID,75.779,VALID,489.47,VALID,24.972,VALID,29.0,VALID,0.0,
2019-11-14, 10:21:06,VALID,918.576,VALID,0.0,VALID,74.27,VALID,487.2,VALID,24.812,VALID,51.0,VALID,0.0,
2019-11-14, 10:22:06,VALID,918.581,VALID,0.0,VALID,75.344,VALID,492.452,VALID,24.75,VALID,41.0,VALID,0.0,
2019-11-14, 10:23:06,VALID,918.577,VALID,0.0,VALID,75.05,VALID,510.542,VALID,24.719,VALID,39.0,VALID,0.0,
2019-11-14, 10:24:06,VALID,918.593,VALID,0.0,VALID,76.19,VALID,579.656,VALID,24.797,VALID,28.0,VALID,0.0,
2019-11-14, 10:25:06,VALID,918.592,VALID,0.0,VALID,76.23,VALID,565.801,VALID,25.033,VALID,23.0,VALID,0.0,
2019-11-14, 10:26:06,VALID,918.583,VALID,0.0,VALID,72.966,VALID,599.768,VALID,25.013,VALID,40.0,VALID,0.0,
2019-11-14, 10:27:06,VALID,918.59,VALID,0.0,VALID,74.548,VALID,581.345,VALID,24.922,VALID,12.0,VALID,0.0,
2019-11-14, 10:28:06,VALID,918.601,VALID,0.0,VALID,75.891,VALID,567.706,VALID,24.967,VALID,41.0,VALID,0.0,
2019-11-14, 10:29:06,VALID,918.6,VALID,0.0,VALID,75.889,VALID,559.652,VALID,24.94,VALID,33.0,VALID,0.0,
2019-11-14, 10:30:06,VALID,918.605,VALID,0.0,VALID,75.992,VALID,539.448,VALID,25.128,VALID,16.0,VALID,0.0,
2019-11-14, 10:31:06,VALID,918.615,VALID,0.0,VALID,73.838,VALID,528.586,VALID,25.152,VALID,61.0,VALID,0.0,
2019-11-14, 10:32:06,VALID,918.604,VALID,0.0,VALID,75.081,VALID,524.969,VALID,25.077,VALID,38.0,VALID,0.0,
2019-11-14, 10:33:06,VALID,918.606,VALID,0.0,VALID,75.454,VALID,534.009,VALID,25.268,VALID,49.0,VALID,0.0,
2019-11-14, 10:34:06,VALID,918.581,VALID,0.0,VALID,74.69,VALID,589.145,VALID,25.282,VALID,49.0,VALID,0.0,
2019-11-14, 10:35:06,VALID,918.564,VALID,0.0,VALID,74.924,VALID,699.672,VALID,25.374,VALID,21.0,VALID,0.0,
2019-11-14, 10:36:06,VALID,918.55,VALID,0.0,VALID,73.14,VALID,443.657,VALID,25.383,VALID,24.0,VALID,0.0,
2019-11-14, 10:37:06,VALID,918.585,VALID,0.0,VALID,74.269,VALID,458.109,VALID,25.23,VALID,52.0,VALID,0.0,
2019-11-14, 10:38:06,VALID,918.591,VALID,0.0,VALID,74.576,VALID,482.166,VALID,25.191,VALID,53.0,VALID,0.0,
2019-11-14, 10:39:06,VALID,918.597,VALID,0.0,VALID,75.607,VALID,490.338,VALID,25.256,VALID,47.0,VALID,0.0,